![]() |
EMODnet Physics ERDDAP
Easier access to scientific data |
log in|
Brought to you by EMODnet Physics |
| Dataset Title: | NDBC - Collection of dew point temperature (DEWT) TimeSeries - IN SITU MultiPointTimeSeriesObservation
|
| Institution: | NDBC (Dataset ID: TS_DEWT_NDBC) |
| Information: | Summary
| License
| FGDC
| ISO 19115
| Metadata
| Background
| Subset
| Data Access Form
| Make a graph
|
| Name | Last modified | Size | Description | |
|---|---|---|---|---|
| Parent Directory | - | - | ||
| 46080_TS_DEWT_012005.nc | 17-Jan-2026 21:16 | 449059 | ||
| 46080_TS_DEWT_012006.nc | 17-Jan-2026 21:20 | 449406 | ||
| 46080_TS_DEWT_012007.nc | 17-Jan-2026 21:23 | 449080 | ||
| 46080_TS_DEWT_012012.nc | 17-Jan-2026 21:35 | 429495 | ||
| 46080_TS_DEWT_012015.nc | 17-Jan-2026 21:41 | 450257 | ||
| 46080_TS_DEWT_012016.nc | 17-Jan-2026 21:45 | 429498 | ||
| 46080_TS_DEWT_012017.nc | 17-Jan-2026 21:49 | 448436 | ||
| 46080_TS_DEWT_012022.nc | 17-Jan-2026 22:21 | 447981 | ||
| 46080_TS_DEWT_012024.nc | 17-Jan-2026 22:37 | 449008 | ||
| 46080_TS_DEWT_022005.nc | 17-Jan-2026 21:17 | 449727 | ||
| 46080_TS_DEWT_022006.nc | 17-Jan-2026 21:20 | 448724 | ||
| 46080_TS_DEWT_022007.nc | 17-Jan-2026 21:23 | 450062 | ||
| 46080_TS_DEWT_022012.nc | 17-Jan-2026 21:35 | 448259 | ||
| 46080_TS_DEWT_022015.nc | 17-Jan-2026 21:41 | 449595 | ||
| 46080_TS_DEWT_022016.nc | 17-Jan-2026 21:45 | 448901 | ||
| 46080_TS_DEWT_022017.nc | 17-Jan-2026 21:49 | 429497 | ||
| 46080_TS_DEWT_032005.nc | 17-Jan-2026 21:17 | 427610 | ||
| 46080_TS_DEWT_032012.nc | 17-Jan-2026 21:36 | 431635 | ||
| 46080_TS_DEWT_032015.nc | 17-Jan-2026 21:42 | 435104 | ||
| 46080_TS_DEWT_032016.nc | 17-Jan-2026 21:45 | 424246 | ||
| 46080_TS_DEWT_032017.nc | 17-Jan-2026 21:49 | 429604 | ||
| 46080_TS_DEWT_042005.nc | 17-Jan-2026 21:17 | 429607 | ||
| 46080_TS_DEWT_042012.nc | 17-Jan-2026 21:36 | 429601 | ||
| 46080_TS_DEWT_042015.nc | 17-Jan-2026 21:42 | 429613 | ||
| 46080_TS_DEWT_042016.nc | 17-Jan-2026 21:46 | 429598 | ||
| 46080_TS_DEWT_042017.nc | 17-Jan-2026 21:50 | 429430 | ||
| 46080_TS_DEWT_052003.nc | 26-Dec-2024 16:12 | 429594 | ||
| 46080_TS_DEWT_052005.nc | 17-Jan-2026 21:18 | 429615 | ||
| 46080_TS_DEWT_052006.nc | 17-Jan-2026 21:20 | 429622 | ||
| 46080_TS_DEWT_052012.nc | 17-Jan-2026 21:36 | 429600 | ||
| 46080_TS_DEWT_052016.nc | 17-Jan-2026 21:46 | 429589 | ||
| 46080_TS_DEWT_052017.nc | 17-Jan-2026 21:51 | 429622 | ||
| 46080_TS_DEWT_052018.nc | 17-Jan-2026 21:53 | 429615 | ||
| 46080_TS_DEWT_052022.nc | 17-Jan-2026 22:23 | 444146 | ||
| 46080_TS_DEWT_052024.nc | 17-Jan-2026 22:38 | 429625 | ||
| 46080_TS_DEWT_062003.nc | 26-Dec-2024 16:12 | 442603 | ||
| 46080_TS_DEWT_062005.nc | 17-Jan-2026 21:18 | 450974 | ||
| 46080_TS_DEWT_062006.nc | 17-Jan-2026 21:21 | 450109 | ||
| 46080_TS_DEWT_062007.nc | 17-Jan-2026 21:23 | 449793 | ||
| 46080_TS_DEWT_062011.nc | 17-Jan-2026 21:33 | 449674 | ||
| 46080_TS_DEWT_062012.nc | 17-Jan-2026 21:37 | 449916 | ||
| 46080_TS_DEWT_062015.nc | 17-Jan-2026 21:43 | 449840 | ||
| 46080_TS_DEWT_062016.nc | 17-Jan-2026 21:47 | 429835 | ||
| 46080_TS_DEWT_062017.nc | 17-Jan-2026 21:51 | 450378 | ||
| 46080_TS_DEWT_062018.nc | 17-Jan-2026 21:54 | 429837 | ||
| 46080_TS_DEWT_062020.nc | 17-Jan-2026 22:11 | 449603 | ||
| 46080_TS_DEWT_062021.nc | 17-Jan-2026 22:18 | 450170 | ||
| 46080_TS_DEWT_062022.nc | 17-Jan-2026 22:23 | 449822 | ||
| 46080_TS_DEWT_062023.nc | 17-Jan-2026 22:29 | 449683 | ||
| 46080_TS_DEWT_062024.nc | 17-Jan-2026 22:39 | 450330 | ||
| 46080_TS_DEWT_072003.nc | 26-Dec-2024 16:12 | 449341 | ||
| 46080_TS_DEWT_072004.nc | 17-Jan-2026 21:16 | 450100 | ||
| 46080_TS_DEWT_072005.nc | 17-Jan-2026 21:18 | 451665 | ||
| 46080_TS_DEWT_072006.nc | 17-Jan-2026 21:21 | 448756 | ||
| 46080_TS_DEWT_072007.nc | 17-Jan-2026 21:24 | 429840 | ||
| 46080_TS_DEWT_072008.nc | 17-Jan-2026 21:26 | 424438 | ||
| 46080_TS_DEWT_072011.nc | 17-Jan-2026 21:33 | 421905 | ||
| 46080_TS_DEWT_072012.nc | 17-Jan-2026 21:37 | 438296 | ||
| 46080_TS_DEWT_072014.nc | 17-Jan-2026 21:39 | 425640 | ||
| 46080_TS_DEWT_072015.nc | 17-Jan-2026 21:43 | 429607 | ||
| 46080_TS_DEWT_072016.nc | 17-Jan-2026 21:47 | 429602 | ||
| 46080_TS_DEWT_072017.nc | 17-Jan-2026 21:51 | 429605 | ||
| 46080_TS_DEWT_072018.nc | 17-Jan-2026 21:55 | 429623 | ||
| 46080_TS_DEWT_072019.nc | 17-Jan-2026 22:03 | 429615 | ||
| 46080_TS_DEWT_072020.nc | 17-Jan-2026 22:12 | 429619 | ||
| 46080_TS_DEWT_072021.nc | 17-Jan-2026 22:19 | 429620 | ||
| 46080_TS_DEWT_072022.nc | 17-Jan-2026 22:24 | 429403 | ||
| 46080_TS_DEWT_072023.nc | 17-Jan-2026 22:30 | 429604 | ||
| 46080_TS_DEWT_072024.nc | 17-Jan-2026 22:40 | 429429 | ||
| 46080_TS_DEWT_082002.nc | 26-Dec-2024 16:11 | 429613 | ||
| 46080_TS_DEWT_082003.nc | 26-Dec-2024 16:13 | 429614 | ||
| 46080_TS_DEWT_082005.nc | 17-Jan-2026 21:18 | 429621 | ||
| 46080_TS_DEWT_082006.nc | 17-Jan-2026 21:21 | 418800 | ||
| 46080_TS_DEWT_082007.nc | 17-Jan-2026 21:24 | 427960 | ||
| 46080_TS_DEWT_082008.nc | 17-Jan-2026 21:26 | 449950 | ||
| 46080_TS_DEWT_082011.nc | 17-Jan-2026 21:33 | 449621 | ||
| 46080_TS_DEWT_082012.nc | 17-Jan-2026 21:37 | 449774 | ||
| 46080_TS_DEWT_082014.nc | 17-Jan-2026 21:39 | 449928 | ||
| 46080_TS_DEWT_082015.nc | 17-Jan-2026 21:43 | 449617 | ||
| 46080_TS_DEWT_082016.nc | 17-Jan-2026 21:47 | 451243 | ||
| 46080_TS_DEWT_082017.nc | 17-Jan-2026 21:52 | 450566 | ||
| 46080_TS_DEWT_082018.nc | 17-Jan-2026 21:56 | 434481 | ||
| 46080_TS_DEWT_082019.nc | 17-Jan-2026 22:04 | 450729 | ||
| 46080_TS_DEWT_082020.nc | 17-Jan-2026 22:14 | 429838 | ||
| 46080_TS_DEWT_082021.nc | 17-Jan-2026 22:19 | 450871 | ||
| 46080_TS_DEWT_082022.nc | 17-Jan-2026 22:25 | 449845 | ||
| 46080_TS_DEWT_082023.nc | 17-Jan-2026 22:31 | 450257 | ||
| 46080_TS_DEWT_082024.nc | 17-Jan-2026 22:41 | 450319 | ||
| 46080_TS_DEWT_092003.nc | 26-Dec-2024 16:13 | 440990 | ||
| 46080_TS_DEWT_092005.nc | 17-Jan-2026 21:19 | 449969 | ||
| 46080_TS_DEWT_092006.nc | 17-Jan-2026 21:22 | 450243 | ||
| 46080_TS_DEWT_092007.nc | 17-Jan-2026 21:25 | 449701 | ||
| 46080_TS_DEWT_092008.nc | 17-Jan-2026 21:26 | 449987 | ||
| 46080_TS_DEWT_092011.nc | 17-Jan-2026 21:34 | 418795 | ||
| 46080_TS_DEWT_092012.nc | 17-Jan-2026 21:37 | 430517 | ||
| 46080_TS_DEWT_092014.nc | 17-Jan-2026 21:40 | 445901 | ||
| 46080_TS_DEWT_092015.nc | 17-Jan-2026 21:43 | 428637 | ||
| 46080_TS_DEWT_092016.nc | 17-Jan-2026 21:48 | 429273 | ||
| 46080_TS_DEWT_092017.nc | 17-Jan-2026 21:52 | 429277 | ||
| 46080_TS_DEWT_092018.nc | 17-Jan-2026 21:57 | 428297 | ||
| 46080_TS_DEWT_092019.nc | 17-Jan-2026 22:05 | 428788 | ||
| 46080_TS_DEWT_092020.nc | 17-Jan-2026 22:15 | 429282 | ||
| 46080_TS_DEWT_092021.nc | 17-Jan-2026 22:19 | 429130 | ||
| 46080_TS_DEWT_092022.nc | 17-Jan-2026 22:25 | 429289 | ||
| 46080_TS_DEWT_092023.nc | 17-Jan-2026 22:32 | 425125 | ||
| 46080_TS_DEWT_092024.nc | 17-Jan-2026 22:42 | 429284 | ||
| 46080_TS_DEWT_102003.nc | 26-Dec-2024 16:13 | 429266 | ||
| 46080_TS_DEWT_102005.nc | 17-Jan-2026 21:19 | 429251 | ||
| 46080_TS_DEWT_102006.nc | 17-Jan-2026 21:22 | 429277 | ||
| 46080_TS_DEWT_102007.nc | 17-Jan-2026 21:25 | 429289 | ||
| 46080_TS_DEWT_102008.nc | 17-Jan-2026 21:27 | 437718 | ||
| 46080_TS_DEWT_102011.nc | 17-Jan-2026 21:34 | 450344 | ||
| 46080_TS_DEWT_102012.nc | 17-Jan-2026 21:38 | 449787 | ||
| 46080_TS_DEWT_102014.nc | 17-Jan-2026 21:40 | 448795 | ||
| 46080_TS_DEWT_102015.nc | 17-Jan-2026 21:44 | 449833 | ||
| 46080_TS_DEWT_102016.nc | 17-Jan-2026 21:48 | 449075 | ||
| 46080_TS_DEWT_102017.nc | 17-Jan-2026 21:53 | 448803 | ||
| 46080_TS_DEWT_102018.nc | 17-Jan-2026 21:57 | 448874 | ||
| 46080_TS_DEWT_102019.nc | 17-Jan-2026 22:06 | 449064 | ||
| 46080_TS_DEWT_102020.nc | 17-Jan-2026 22:16 | 449186 | ||
| 46080_TS_DEWT_102021.nc | 17-Jan-2026 22:20 | 450601 | ||
| 46080_TS_DEWT_102022.nc | 17-Jan-2026 22:26 | 423148 | ||
| 46080_TS_DEWT_102023.nc | 17-Jan-2026 22:33 | 448553 | ||
| 46080_TS_DEWT_102024.nc | 17-Jan-2026 22:42 | 448894 | ||
| 46080_TS_DEWT_112003.nc | 26-Dec-2024 16:13 | 448525 | ||
| 46080_TS_DEWT_112005.nc | 17-Jan-2026 21:19 | 449349 | ||
| 46080_TS_DEWT_112006.nc | 17-Jan-2026 21:22 | 421932 | ||
| 46080_TS_DEWT_112007.nc | 17-Jan-2026 21:25 | 449100 | ||
| 46080_TS_DEWT_112008.nc | 17-Jan-2026 21:27 | 449415 | ||
| 46080_TS_DEWT_112011.nc | 17-Jan-2026 21:34 | 449012 | ||
| 46080_TS_DEWT_112012.nc | 17-Jan-2026 21:38 | 448939 | ||
| 46080_TS_DEWT_112014.nc | 17-Jan-2026 21:41 | 429499 | ||
| 46080_TS_DEWT_112015.nc | 17-Jan-2026 21:44 | 436513 | ||
| 46080_TS_DEWT_112019.nc | 17-Jan-2026 22:07 | 435705 | ||
| 46080_TS_DEWT_112020.nc | 17-Jan-2026 22:17 | 443123 | ||
| 46080_TS_DEWT_112021.nc | 17-Jan-2026 22:20 | 437531 | ||
| 46080_TS_DEWT_112022.nc | 17-Jan-2026 22:26 | 429345 | ||
| 46080_TS_DEWT_112023.nc | 17-Jan-2026 22:34 | 429606 | ||
| 46080_TS_DEWT_112024.nc | 17-Jan-2026 22:43 | 429611 | ||
| 46080_TS_DEWT_122004.nc | 17-Jan-2026 21:16 | 429609 | ||
| 46080_TS_DEWT_122005.nc | 17-Jan-2026 21:20 | 429619 | ||
| 46080_TS_DEWT_122006.nc | 17-Jan-2026 21:22 | 429620 | ||
| 46080_TS_DEWT_122011.nc | 17-Jan-2026 21:35 | 429627 | ||
| 46080_TS_DEWT_122012.nc | 17-Jan-2026 21:39 | 429614 | ||
| 46080_TS_DEWT_122014.nc | 17-Jan-2026 21:41 | 429493 | ||
| 46080_TS_DEWT_122015.nc | 17-Jan-2026 21:44 | 429620 | ||
| 46080_TS_DEWT_122016.nc | 17-Jan-2026 21:48 | 429584 | ||
| 46080_TS_DEWT_122019.nc | 17-Jan-2026 22:08 | 429612 | ||
| 46080_TS_DEWT_122021.nc | 17-Jan-2026 22:20 | 429623 | ||
| 46080_TS_DEWT_122023.nc | 17-Jan-2026 22:36 | 429613 | ||